Location: Fauquembergues
(50.6005°N, 2.0987°E)
Time: 08:47:19
(UTC+00:00)

Cosmos 921 Rocket - Pass Details

Date: 14 July 2020
Orbit: 572 x 631 km, 75.8° (Epoch: 14 August)

Event Time Altitude Azimuth Distance (km) Brightness Sun altitude
Rises 02:04:50 0° 338° (NNW) 2,907 7.1 -12.5°
Reaches altitude 10° 02:07:07 10° 338° (NNW) 1,988 6.2 -12.3°
Maximum altitude 02:11:34 88° 249° (WSW) 615 3.0 -12.0°
Drops below altitude 10° 02:15:53 10° 161° (SSE) 1,935 5.2 -11.6°
Enters shadow 02:17:11 - 161° (SSE) 2,461 5.8 -11.5°
